STARLINK-11270 [DTC]

Last updated on Sun Oct 06 2024 00:02:04 GMT+0000 (Coordinated Universal Time)

1 60999U 24158K 24279.40489660 -.00002199 00000+0 -94261-5 0 9993 2 60999 53.1580 326.3953 0001987 127.0637 233.0566 15.76735162 5866
UTC large
Height (km)
Speed (km/s)
/
Latitude / Longitude
Inclination (degrees)
Orbital Period (minutes)
Azimuth
Elevation
Range (km)
Doppler Factor

Next 0 passes for location: London (51.5072 / 0.1276)

Sorry there are no passes over London.